[[{"header":{"parameterUnit":"m.s-1","parameterCategory":1,"la1":30.2991,"la2":30.254,"lo1":-89.0895,"lo2":-89.0444,"dy":0.0017,"dx":0.0017,"nx":28,"ny":28,"refTime":"2024-05-24T03:00:00:Z","depth":0,"parameterNumber":2,"parameterNumberName":"U-component_of_WINDS"},"data":[0,0,0,0,0,0,0,0,0,0,0,0,0,0,0,0,0,0,0,0,0,0,0,0,0,0,0,0,0,0,0,0,0,0,0,0,0,0,0,0,0,0,0,0,0,0,0,0,0,0,0,0,0,0,0,0,0,0,-2.4066,-2.4066,0,-2.406,-2.406,-2.406,-2.4001,-2.4,-2.3998,-2.3997,-2.3991,-2.3993,-2.3994,0,0,0,0,0,0,0,0,0,0,0,0,0,-2.4029,-2.403,-2.4066,-2.4066,-2.4066,-2.406,-2.406,-2.406,-2.4001,-2.3999,-2.3998,-2.3996,-2.3991,-2.3992,-2.3994,0,0,0,0,0,0,0,0,0,0,0,0,0,-2.4036,-2.403,-2.4066,-2.4036,-2.4033,-2.406,-2.406,-2.406,-2.4002,-2.3999,-2.3997,-2.3995,-2.3991,-2.3992,-2.3994,-2.405,0,0,-2.4,-2.4001,0,0,0,0,0,0,0,0,-2.4036,-2.4038,-2.404,-2.4038,-2.4035,-2.4029,-2.4045,-2.4057,-2.4002,-2.4014,-2.3997,-2.3994,-2.4006,-2.4006,-2.401,-2.405,-2.405,-2.4,-2.4001,-2.4002,-2.4002,0,0,0,0,0,0,0,-2.4035,-2.4038,-2.4064,-2.404,-2.4037,-2.4023,-2.4022,-2.4047,-2.4022,-2.4012,-2.4008,-2.4008,-2.4004,-2.4008,-2.4009,-2.4049,-2.4,-2.4002,-2.4003,-2.4003,-2.4137,-2.4139,0,0,0,0,0,0,-2.4039,-2.4038,-2.4064,-2.4063,-2.403,-2.4026,-2.4024,-2.4033,-2.4022,-2.4018,-2.401,-2.4005,-2.4006,-2.4007,-2.4009,-2.4074,-2.4002,-2.4004,-2.4005,-2.4135,-2.4138,-2.414,0,0,0,0,0,0,-2.4038,-2.4042,-2.4064,-2.4049,-2.4051,-2.4029,-2.4039,-2.4034,-2.4038,-2.402,-2.4015,-2.4019,-2.4005,-2.4006,-2.4041,-2.4073,-2.4005,-2.4006,-2.4132,-2.4136,-2.4139,-2.4205,0,0,0,0,0,0,-2.4037,-2.4042,-2.4062,-2.405,-2.4052,-2.4095,-2.4041,-2.4036,-2.4042,-2.4036,-2.4027,-2.4024,-2.4003,-2.4038,-2.4043,-2.4074,-2.4008,-2.4129,-2.4133,-2.4138,-2.4199,-2.421,-2.4219,0,0,0,0,0,-2.4036,-2.408,-2.4063,-2.4067,-2.4077,-2.4097,-2.4098,-2.4073,-2.4045,-2.4065,-2.4054,-2.4024,-2.407,-2.4042,-2.4047,-2.408,-2.4126,-2.4132,-2.4137,-2.4195,-2.4208,-2.4219,0,0,0,0,0,0,-2.4096,-2.4078,-2.4059,-2.41,-2.4101,-2.4087,-2.4111,-2.4087,-2.4096,-2.409,-2.4059,-2.4058,-2.4097,-2.4092,-2.4062,-2.4134,-2.4093,-2.41,-2.4135,-2.4148,-2.4157,-2.4157,-2.4009,0,0,0,0,0,-2.4114,-2.4131,-2.4115,-2.4153,-2.4154,-2.4134,-2.4141,-2.4123,-2.4122,-2.4121,-2.4112,-2.4113,-2.4128,-2.4138,-2.415,-2.42,-2.4197,-2.4225,-2.4235,-2.4243,-2.4248,-2.4276,-2.4288,-2.4158,-2.4158,-2.4158,0,0,-2.4151,-2.4143,-2.4156,-2.4165,-2.4163,-2.4182,-2.4134,-2.4156,-2.417,-2.4125,-2.4156,-2.415,-2.4149,-2.4192,-2.421,-2.4189,-2.4284,-2.425,-2.4257,-2.4257,-2.4282,-2.4295,-2.4306,-2.4162,-2.4161,-2.4161,0,0,-2.4227,-2.4224,-2.4255,-2.4255,-2.4253,-2.424,-2.4248,-2.4239,-2.4233,-2.4264,-2.4231,-2.4249,-2.4274,-2.4275,-2.4279,-2.4361,-2.4334,-2.4367,-2.4417,-2.4444,-2.4454,-2.4463,-2.4492,-2.4503,-2.4373,-2.4373,-2.4373,0,-2.4273,-2.43,-2.4275,-2.43,-2.4305,-2.4267,-2.4299,-2.4301,-2.4303,-2.4308,-2.4285,-2.4318,-2.4314,-2.4357,-2.4378,-2.4382,-2.4391,-2.4366,-2.4455,-2.4464,-2.4471,-2.4499,-2.451,-2.4377,-2.4376,-2.4376,-2.4375,0,-2.4358,-2.4377,-2.4404,-2.4407,-2.4416,-2.4445,-2.4425,-2.4438,-2.442,-2.4409,-2.4443,-2.4438,-2.445,-2.4459,-2.4441,-2.45,-2.4487,-2.446,-2.4418,-2.4488,-2.4513,-2.4524,-2.4382,-2.4381,-2.438,-2.4379,0,0,-2.4468,-2.446,-2.4469,-2.4472,-2.4469,-2.4484,-2.4513,-2.4524,-2.4535,-2.454,-2.4563,-2.4588,-2.4563,-2.4568,-2.4551,-2.4575,-2.464,-2.4545,-2.4544,-2.4562,-2.4706,-2.4725,-2.4738,-2.4624,-2.4626,-2.4627,-2.4706,0,-2.4541,-2.4588,-2.4567,-2.4617,-2.4635,-2.4601,-2.4626,-2.4628,-2.462,-2.4635,-2.4627,-2.4644,-2.4611,-2.4614,-2.4636,-2.4628,-2.4669,-2.4622,-2.4645,-2.4646,-2.4645,-2.4751,-2.4771,-2.4845,-2.4716,-2.4717,-2.4719,0,-2.4632,-2.4641,-2.4692,-2.4688,-2.4695,-2.4718,-2.4728,-2.4743,-2.4746,-2.4738,-2.4746,-2.4724,-2.4753,-2.4713,-2.4753,-2.4722,-2.4731,-2.4728,-2.4731,-2.473,-2.4685,-2.4752,-2.4868,-2.4878,-2.4734,-2.4733,-2.4732,0,-2.4707,-2.4732,-2.4766,-2.4769,-2.4765,-2.4782,-2.4781,-2.4781,-2.4791,-2.48,-2.4806,-2.482,-2.4826,-2.4838,-2.4821,-2.4793,-2.4864,-2.4822,-2.4858,-2.4859,-2.4873,-2.4872,-2.499,-2.4881,-2.4881,-2.4881,-2.4881,0,-2.479,-2.4822,-2.48,-2.482,-2.4857,-2.4835,-2.4871,-2.4867,-2.4868,-2.4889,-2.4861,-2.4881,-2.4858,-2.4876,-2.4863,-2.4899,-2.4903,-2.4898,-2.4894,-2.4899,-2.49,-2.4903,-2.4897,-2.4884,-2.4883,-2.4883,-2.4882,0,-2.4878,-2.4864,-2.4899,-2.4893,-2.4893,-2.492,-2.4916,-2.4936,-2.4927,-2.4954,-2.4959,-2.4945,-2.4966,-2.4951,-2.4971,-2.4962,-2.5009,-2.4998,-2.5008,-2.5004,-2.5042,-2.5038,-2.5165,-2.518,-2.5063,-2.5064,-2.5065,0,-2.4931,-2.4955,-2.4953,-2.4965,-2.4966,-2.4985,-2.4995,-2.4976,-2.4987,-2.4993,-2.5013,-2.5031,-2.5044,-2.5079,-2.5071,-2.5087,-2.5076,-2.512,-2.5078,-2.5084,-2.5076,-2.5074,-2.5077,-2.5127,-2.5129,-2.513,-2.5131,0,-2.5026,-2.5019,-2.5034,-2.5047,-2.506,-2.507,-2.5077,-2.5089,-2.5069,-2.5084,-2.5105,-2.5115,-2.5137,-2.5155,-2.5169,-2.5169,-2.5147,-2.5145,-2.5154,-2.5158,-2.5163,-2.516,-2.5029,-2.5141,-2.514,-2.5139,-2.5138,-2.5138,-2.5097,-2.5118,-2.5121,-2.5139,-2.5143,-2.5151,-2.517,-2.5165,-2.5182,-2.5198,-2.5186,-2.5211,-2.5216,-2.5232,-2.5236,-2.5256,-2.5238,-2.5251,-2.5254,-2.5257,-2.5262,-2.5162,-2.5258,-2.5258,-2.5258,-2.5257,-2.5257,0,-2.5191,-2.5192,-2.5209,-2.5221,-2.5236,-2.5215,-2.5223,-2.5237,-2.526,-2.5266,-2.528,-2.5305,-2.5324,-2.532,-2.5337,-2.5354,-2.5345,-2.5359,-2.5357,-2.5358,-2.5277,-2.5267,-2.5367,-2.5367,-2.5367,-2.5367,-2.5367,-2.5367,-2.5241,-2.5275,-2.5269,-2.5306,-2.5307,-2.5331,-2.5338,-2.5346,-2.5351,-2.538,-2.5396,-2.5393,-2.5396,-2.5414,-2.5431,-2.5429,-2.5436,-2.5455,-2.5449,-2.5374,-2.5363,-2.5353,-2.5343,-2.5457,-2.5457,-2.5528,-2.5528,-2.5529]},{"header":{"parameterUnit":"m.s-1","parameterCategory":1,"la1":30.2991,"la2":30.254,"lo1":-89.0895,"lo2":-89.0444,"dy":0.0017,"dx":0.0017,"nx":28,"ny":28,"refTime":"2024-05-24T03:00:00:Z","depth":0,"parameterNumber":3,"parameterNumberName":"V-component_of_WINDS"},"data":[0,0,0,0,0,0,0,0,0,0,0,0,0,0,0,0,0,0,0,0,0,0,0,0,0,0,0,0,0,0,0,0,0,0,0,0,0,0,0,0,0,0,0,0,0,0,0,0,0,0,0,0,0,0,0,0,0,0,4.7125,4.7125,0,4.7086,4.7086,4.7085,4.7082,4.7083,4.7083,4.7083,4.7039,4.7037,4.7035,0,0,0,0,0,0,0,0,0,0,0,0,0,4.7194,4.7193,4.7125,4.7124,4.7124,4.7086,4.7086,4.7085,4.7082,4.7083,4.7083,4.7084,4.7039,4.7037,4.7035,0,0,0,0,0,0,0,0,0,0,0,0,0,4.716,4.7192,4.7125,4.7118,4.7117,4.7086,4.7086,4.7085,4.7082,4.7083,4.7083,4.7084,4.704,4.7037,4.7035,4.7007,0,0,4.7028,4.7027,0,0,0,0,0,0,0,0,4.7162,4.7158,4.712,4.7118,4.7117,4.709,4.7093,4.7059,4.7082,4.7095,4.7083,4.7084,4.7055,4.7051,4.7042,4.7005,4.7003,4.7027,4.7026,4.7025,4.7024,0,0,0,0,0,0,0,4.7164,4.7159,4.7109,4.7119,4.7118,4.7116,4.7112,4.7087,4.7071,4.7094,4.7094,4.7089,4.7054,4.7045,4.7041,4.7002,4.7028,4.7025,4.7024,4.7023,4.6942,4.6942,0,0,0,0,0,0,4.7169,4.7161,4.7111,4.7108,4.7142,4.7114,4.711,4.7098,4.7072,4.7069,4.7089,4.7089,4.7048,4.7044,4.704,4.7006,4.7025,4.7023,4.7021,4.6943,4.6942,4.6941,0,0,0,0,0,0,4.717,4.7164,4.7112,4.7135,4.7128,4.7112,4.7099,4.7097,4.7087,4.7068,4.7065,4.7082,4.7049,4.7043,4.7016,4.7005,4.7022,4.702,4.6944,4.6943,4.6942,4.6939,0,0,0,0,0,0,4.7172,4.7165,4.7154,4.7135,4.7127,4.709,4.7098,4.7095,4.7084,4.7084,4.7061,4.7057,4.7049,4.702,4.7014,4.7002,4.7018,4.6945,4.6943,4.6942,4.694,4.6938,4.6936,0,0,0,0,0,4.7175,4.7153,4.7154,4.7148,4.7114,4.7089,4.7085,4.7076,4.7083,4.7072,4.706,4.7058,4.7007,4.7017,4.701,4.6997,4.6945,4.6944,4.6942,4.694,4.6938,4.6936,0,0,0,0,0,0,4.7169,4.715,4.7151,4.7123,4.7108,4.7089,4.7075,4.7074,4.7055,4.7056,4.7046,4.704,4.7014,4.7003,4.7014,4.697,4.6977,4.6974,4.6978,4.6975,4.6973,4.6976,4.7016,0,0,0,0,0,4.7166,4.7149,4.7132,4.7109,4.7102,4.709,4.7079,4.7074,4.7058,4.7051,4.7037,4.702,4.7001,4.6987,4.6968,4.6939,4.6934,4.6927,4.6925,4.6923,4.692,4.6905,4.6902,4.6936,4.6936,4.6936,0,0,4.7156,4.7144,4.7133,4.7108,4.7096,4.7078,4.7084,4.7064,4.7051,4.7047,4.7022,4.7011,4.6992,4.6964,4.6951,4.6954,4.691,4.6921,4.692,4.6918,4.6904,4.69,4.6897,4.6935,4.6935,4.6936,0,0,4.713,4.7119,4.7099,4.7088,4.7071,4.7064,4.7059,4.7041,4.7035,4.7009,4.7007,4.699,4.6956,4.6943,4.6932,4.6905,4.6903,4.6899,4.6888,4.6874,4.6871,4.6869,4.6859,4.6856,4.6896,4.6896,4.6896,0,4.712,4.7094,4.7089,4.707,4.7059,4.7058,4.7038,4.7027,4.7004,4.6996,4.7,4.696,4.6946,4.6916,4.691,4.6901,4.6895,4.69,4.6872,4.687,4.6867,4.6858,4.6855,4.6896,4.6896,4.6896,4.6896,0,4.7083,4.7065,4.7051,4.7032,4.7019,4.7,4.6991,4.698,4.6977,4.6969,4.6944,4.6929,4.6907,4.69,4.6896,4.687,4.6873,4.6875,4.6881,4.6864,4.6855,4.6852,4.6895,4.6896,4.6896,4.6896,0,0,4.705,4.703,4.7025,4.7017,4.7,4.6985,4.6967,4.6948,4.6938,4.6923,4.6907,4.688,4.6883,4.687,4.6865,4.6853,4.6833,4.6856,4.6856,4.6853,4.6805,4.6803,4.6799,4.6833,4.6832,4.6831,4.6806,0,4.7022,4.699,4.6986,4.6957,4.6941,4.6941,4.6925,4.6912,4.6905,4.689,4.6881,4.6863,4.6868,4.6861,4.6848,4.6838,4.6823,4.684,4.6817,4.6816,4.6821,4.6794,4.6791,4.6768,4.6803,4.6802,4.6802,0,4.6984,4.6971,4.6941,4.6928,4.6921,4.6907,4.689,4.6876,4.6862,4.6858,4.6846,4.6843,4.6824,4.6833,4.6806,4.6817,4.6808,4.6802,4.6801,4.6797,4.6807,4.679,4.6761,4.6757,4.6796,4.6797,4.6797,0,4.6963,4.6938,4.6917,4.691,4.6895,4.6885,4.6877,4.6865,4.6854,4.684,4.6833,4.6816,4.6806,4.6793,4.6786,4.6793,4.676,4.6768,4.6755,4.6755,4.6747,4.6747,4.6715,4.6742,4.6742,4.6742,4.6742,0,4.6932,4.6914,4.6908,4.6895,4.6875,4.6871,4.6851,4.6844,4.6833,4.6819,4.6818,4.6804,4.6796,4.6781,4.6775,4.6754,4.675,4.6746,4.6744,4.6745,4.6746,4.6738,4.6739,4.6741,4.6741,4.6741,4.6741,0,4.6905,4.69,4.6878,4.6866,4.6863,4.6849,4.6839,4.6826,4.6821,4.6802,4.6798,4.6788,4.6771,4.6764,4.6741,4.6738,4.6714,4.6713,4.6719,4.6718,4.6706,4.6708,4.6668,4.6662,4.6693,4.6692,4.6692,0,4.6885,4.6871,4.6859,4.6851,4.6844,4.683,4.682,4.6817,4.6807,4.6792,4.6781,4.6764,4.6751,4.6723,4.6714,4.6697,4.6696,4.6684,4.6694,4.6696,4.6696,4.6697,4.6696,4.6681,4.6681,4.6681,4.6681,0,4.685,4.6849,4.6836,4.6824,4.6813,4.6802,4.6791,4.6784,4.6779,4.6768,4.6751,4.6741,4.6721,4.6704,4.6688,4.6679,4.6679,4.6678,4.6674,4.6675,4.6679,4.6677,4.6714,4.6678,4.6679,4.6679,4.6679,4.6679,4.6825,4.6814,4.6805,4.6791,4.6784,4.6775,4.6763,4.6757,4.6744,4.6728,4.6727,4.671,4.6698,4.6677,4.6668,4.6654,4.6657,4.6651,4.665,4.6648,4.6648,4.6682,4.6651,4.6651,4.6651,4.6651,4.6651,0,4.6791,4.6786,4.6773,4.676,4.675,4.6753,4.6742,4.6733,4.6718,4.6708,4.6696,4.6678,4.6663,4.6654,4.6639,4.6629,4.6629,4.6625,4.6625,4.6624,4.6646,4.6651,4.6626,4.6626,4.6626,4.6626,4.6626,4.6626,4.6771,4.6753,4.6752,4.673,4.6725,4.6709,4.6703,4.6695,4.6687,4.6668,4.6656,4.6651,4.6642,4.6626,4.6613,4.661,4.6605,4.6601,4.6599,4.6619,4.6622,4.6624,4.6629,4.66,4.66,4.6578,4.6577,4.6577]}]]